Location: ????????????
(52.8833°N, 53.8167°E)
Time: 06:51:53
(UTC+00:00)

Daily predictions for brighter satellites

Satellite Brightness Start Highest point End
(mag) Time Altitude Azimuth Time Altitude Azimuth Time Altitude Azimuth
H-2A R/B 2.0 15:58:33 10° SSE 16:03:29 70° ENE 16:08:24 10° NNW
GENESIS II 4.4 16:01:04 10° SW 16:05:07 84° NW 16:09:16 10° NE
SL-16 R/B 3.8 16:00:46 10° NNW 16:05:11 22° NNE 16:09:34 10° E
CZ-2C R/B 3.3 16:04:33 10° SE 16:09:07 46° ENE 16:13:50 10° N
Cosmos 1867 4.5 16:06:10 10° NW 16:11:21 40° NNE 16:16:29 10° E
Cosmos 990 Rocket 4.5 16:07:24 10° S 16:12:11 38° ESE 16:16:58 10° NE
USA 186 2.7 16:09:49 10° S 16:12:23 43° W 16:15:12 10° NNW
Cosmos 1536 3.7 16:10:12 10° SSE 16:13:45 30° E 16:17:19 10° NNE
ADEOS Rocket 3.5 16:08:08 10° NNE 16:13:57 44° E 16:20:21 10° S
Cosmos 2360 Rocket 4.2 16:13:11 10° NNW 16:16:48 17° NNE 16:20:25 10° ENE
Cosmos 1666 4.3 16:14:18 10° SE 16:16:49 17° E 16:19:19 10° NE
Cosmos 1378 Rocket 3.6 16:12:29 10° N 16:16:54 63° ENE 16:21:18 10° SSE
Cosmos 1937 Rocket 4.1 16:13:39 10° SSE 16:18:27 36° ESE 16:23:17 10° NE
Spot 2 Rocket 3.9 16:16:44 10° SE 16:21:34 46° ENE 16:26:25 10° N
ARGOS 3.2 16:16:39 10° SSE 16:22:01 88° WSW 16:27:26 10° NNW
Cosmos 2098 Rocket 3.7 16:17:38 10° N 16:22:22 57° ENE 16:28:17 10° SSE
Cosmos 1980 Rocket 2.6 16:18:01 10° NNW 16:23:33 52° NE 16:28:48 11° SE
Meteor 1-5 Rocket 4.3 16:18:08 10° S 16:23:38 56° E 16:28:59 10° NNE
Cosmos 1733 Rocket 3.0 16:19:44 10° S 16:24:03 84° E 16:28:25 10° NNE
Okean 3 4.4 16:20:51 10° NNW 16:24:54 49° W 16:28:58 10° S
Cosmos 1674 Rocket 3.7 16:21:30 10° NNW 16:25:53 80° W 16:30:11 10° S
SL-08 ROCKET BODY 4.3 16:23:43 10° N 16:29:36 72° ENE 16:35:26 10° SSE
Meteor 1-11 Rocket 3.9 16:26:56 10° S 16:32:47 62° E 16:38:40 10° NNE
Resurs 01 Rocket 1.6 16:33:01 10° SSE 16:37:25 90° S 16:41:53 10° NNW
SL-08 RB Rocket 3.8 16:33:22 10° SSE 16:37:57 84° WSW 16:42:37 10° NNW
Terra 3.5 16:40:08 12° E 16:43:11 20° NE 16:46:37 10° N
USA 229 DEB 3.9 16:38:16 10° NW 16:45:28 85° SW 16:52:02 14° SE
USA 229 3.9 16:38:22 10° NW 16:45:34 85° SW 16:52:06 14° SE
COSMOS 2406 3.3 16:41:48 10° SSW 16:47:31 89° WNW 16:53:18 10° NNE
NOSS 3-1 (A) 4.1 16:41:39 10° NW 16:48:50 75° NE 16:55:49 16° SE
Cosmos 1975 Rocket 3.2 16:45:34 10° N 16:49:58 57° ENE 16:53:32 15° SSE
Cosmos 2369 4.0 16:45:01 10° NW 16:50:38 65° WSW 16:56:13 10° SSE
Iridium 2 3.6 16:47:24 10° S 16:51:07 62° E 16:54:52 10° NNE
Cosmos 1500 3.2 16:50:18 10° S 16:54:09 88° W 16:58:01 10° N
USA 245 4.5 16:51:38 15° SE 16:56:04 59° ENE 17:02:10 10° N
Meteor 1-23 Rocket 4.3 16:52:18 10° NNW 16:58:04 87° WSW 17:03:42 10° S
CZ-4C R/B 3.8 16:59:22 14° E 16:59:22 14° E 17:01:26 10° ENE
SPOT 1/Viking Rocket 4.1 16:55:31 17° SE 16:59:11 45° ENE 17:04:08 10° N
Abrixas rocket 3.1 16:57:39 10° WSW 17:00:24 30° SSW 17:01:25 24° SSE
USA 32 4.2 16:57:07 10° N 17:02:18 57° ENE 17:06:13 17° SSE
USA 267 3.2 16:55:44 10° ENE 17:02:19 82° SSE 17:08:54 10° WSW
Cosmos 405 4.5 17:01:18 10° N 17:04:14 23° ENE 17:05:20 20° E
Cosmos 2298 Rocket 4.4 17:00:04 10° S 17:05:04 43° ESE 17:10:06 10° NE
Cosmos 1340 3.0 17:02:35 18° SSE 17:05:06 44° E 17:08:43 10° NNE
ASTEX 1 3.4 17:01:23 10° N 17:06:22 89° E 17:11:18 10° S
MetOp-B 4.1 17:04:10 13° SSE 17:08:59 89° WSW 17:14:22 10° NNW
DMSP B5D2-2 4.0 17:03:54 10° NNE 17:09:10 68° ESE 17:14:26 10° S
Okean 2 3.6 17:06:37 10° N 17:10:38 51° ENE 17:12:43 25° SE
Cosmos 1709 Rocket 4.1 17:05:55 10° NNW 17:12:04 77° W 17:18:14 10° S
CARTOSAT-1 4.3 17:11:51 23° ESE 17:13:53 37° ENE 17:17:54 10° N
Cosmos 1048 Rocket 4.0 17:10:19 10° NNW 17:15:28 71° ENE 17:18:37 24° SE
Cosmos 2322 Rocket 2.9 17:10:16 10° NNW 17:15:37 41° NE 17:19:04 20° ESE
Cosmos 1898 Rocket 3.9 17:15:32 10° SW 17:20:45 65° WNW 17:25:58 10° NNE
GP-B 3.4 17:16:37 10° N 17:21:02 67° W 17:25:26 10° SSW
Aureole 3 Rocket 3.5 17:18:24 10° SSW 17:21:28 41° WNW 17:24:23 10° N
ERS-1 Rocket 3.0 17:18:54 24° SE 17:21:56 64° ENE 17:26:55 10° N
Cosmos 2074 Rocket 4.1 17:16:39 10° N 17:22:55 61° ENE 17:26:57 23° SSE
SJ 16-02 1.7 17:20:21 10° SSW 17:24:45 70° WNW 17:29:13 10° NNE
Cosmos 1975 3.6 17:24:09 30° ESE 17:24:57 33° E 17:28:34 10° NNE
Cosmos 2333 Rocket 4.3 17:21:39 10° NNW 17:25:35 19° NNE 17:29:31 10° ENE
Geosat 4.0 17:24:33 25° SE 17:27:33 88° NE 17:32:38 10° NNW
SPOT 5 2.9 17:25:53 29° SE 17:27:49 53° ENE 17:32:08 10° N
Cosmos 1908 Rocket 4.3 17:23:46 10° SSW 17:28:09 56° WNW 17:32:34 10° N
Cosmos 1833 Rocket 2.7 17:24:22 10° SSW 17:30:02 90° ESE 17:35:43 10° NNE
Cosmos 1025 Rocket 3.6 17:27:46 10° N 17:31:55 41° ENE 17:33:17 31° ESE
Cosmos 1346 Rocket 2.7 17:28:52 14° SSW 17:32:08 85° WNW 17:36:03 10° NNE
Cosmos 2184 Rocket 4.0 17:28:05 10° N 17:34:16 70° ENE 17:37:59 25° SSE
EO 1 Del DPAF 3.6 17:31:06 10° NNE 17:34:44 42° E 17:35:20 39° SE
NOSS 3-1 (C) 4.4 17:29:06 10° NW 17:36:20 60° SW 17:42:02 21° SSE
ATLAS 2AS CENTAUR R/B 4.2 17:29:19 10° WNW 17:36:45 39° N 17:43:51 10° ENE
NOSS 2 (A) 4.4 17:35:44 10° NW 17:38:04 56° WSW 17:38:04 56° WSW
CZ-2C R/B 2.6 17:33:43 10° NNE 17:39:01 72° ESE 17:43:20 16° S
Cosmos 1536 Rocket 3.7 17:35:10 10° N 17:39:33 57° ENE 17:41:03 37° SE
USA 234 4.4 17:35:08 15° S 17:39:35 31° SW 17:45:19 10° WNW
Cosmos 494 Rocket 4.1 17:34:28 10° NNW 17:39:35 62° ENE 17:41:53 32° SE
Cosmos 2082 Rocket 2.1 17:35:14 10° SSW 17:40:52 81° ESE 17:46:36 10° NNE
Cosmos 2315 Rocket 4.2 17:35:15 10° SSW 17:41:36 75° WNW 17:47:57 10° N
Thor Agena Rocket 4.0 17:36:44 10° NNE 17:41:41 42° E 17:43:26 32° SE
Cosmos 1697 Rocket 4.1 17:37:03 10° NW 17:42:04 33° WSW 17:46:39 12° SSW
H-2A R/B 4.3 17:39:51 10° SW 17:43:26 20° W 17:47:02 10° NW
Cosmos 1269 Rocket 4.1 17:38:21 10° NNW 17:43:39 64° ENE 17:45:59 33° SE
Lacrosse 4 Rocket 3.2 17:40:27 10° NNW 17:43:51 23° NNE 17:45:56 16° ENE
Cosmos 1125 Rocket 3.9 17:41:59 31° SSE 17:43:52 43° ESE 17:48:50 10° NE
Cosmos 1743 2.5 17:46:37 41° S 17:47:51 75° E 17:51:41 10° NNE
Landsat 7 3.9 17:47:23 29° S 17:49:49 77° WSW 17:54:37 10° NNW
Okean 2 Rocket 3.0 17:48:18 32° S 17:50:16 74° E 17:54:42 10° NNE
SL-16 R/B 2.2 17:44:36 10° NNW 17:50:19 72° NE 17:52:52 34° SE
NOSS 7 (E) 4.0 17:48:07 10° SW 17:51:25 79° SE 17:54:31 10° NE
Cosmos 1666 3.5 17:48:49 13° SSW 17:52:03 51° WNW 17:55:48 10° N
Cosmos 1867 3.8 17:49:51 10° NW 17:55:17 64° SW 17:57:35 34° SSE
SL-27 R/B 2.4 17:57:09 64° SSE 17:57:28 69° ESE 18:01:07 10° NNE
BREEZE-M DEB (TANK) 3.7 17:54:10 10° W 17:58:33 79° S 18:10:54 10° E
Cosmos 372 Rocket 3.9 17:54:10 12° SSW 17:59:03 85° ESE 18:04:21 10° NNE
ADEOS Rocket 4.2 17:53:51 10° N 17:59:33 45° WNW 18:05:47 10° SW
Cosmos 2360 Rocket 2.8 17:56:51 10° NNW 18:02:17 46° NE 18:04:42 29° ESE
Cosmos 2341 Rocket 4.5 17:56:55 10° N 18:03:05 48° ENE 18:05:30 33° ESE
Cosmos 2219 Rocket 3.8 18:00:49 10° NNW 18:05:25 25° NE 18:08:55 14° E
Cosmos 1980 Rocket 3.3 18:02:18 10° NW 18:07:25 36° WSW 18:10:34 20° SSW
Resurs 01 Rocket 4.3 18:12:27 10° WSW 18:14:35 13° W 18:16:44 10° WNW
IGS 5A 4.3 18:16:07 32° SSW 18:17:32 44° W 18:21:32 10° NNW
COSMOS 2428 4.1 18:12:45 10° NNW 18:17:42 29° NE 18:20:47 18° E
Cosmos 1610 Rocket 4.4 18:12:42 10° NNW 18:18:54 85° W 18:21:38 36° S
ALOS 2 4.4 18:18:46 18° ENE 18:19:38 19° ENE 18:22:46 10° NNE
Meteor 2-15 Rocket 4.4 18:17:30 37° SSE 18:19:59 70° E 18:26:06 10° NNE
Terra 1.8 18:19:02 46° S 18:20:25 77° WSW 18:25:14 10° NNW
Cosmos 1378 3.4 18:16:44 10° NNW 18:20:26 58° W 18:20:54 53° SW
Helios 1A 3.9 18:22:57 33° ENE 18:23:19 33° ENE 18:27:07 10° N
Cosmos 1842 3.7 18:23:41 10° NNW 18:27:32 55° W 18:28:06 50° SW
Mayak 0.2 18:24:34 10° NE 18:27:12 25° ENE 18:27:12 25° ENE
APEX 3.7 18:24:44 10° NW 18:29:55 62° WSW 18:30:34 54° SSW
IRAS Rocket 4.4 18:28:22 44° SE 18:30:01 64° ENE 18:35:33 10° NNW
Cosmos 2181 Rocket 4.5 18:29:48 37° ESE 18:30:56 40° E 18:36:37 10° NNE
Meteor 2-15 4.4 18:28:36 31° SSW 18:31:47 84° WNW 18:37:58 10° N
Cosmos 1707 3.0 18:28:10 10° N 18:31:46 55° ENE 18:31:46 55° ENE
Cosmos 2251 Rocket 3.9 18:29:03 10° NNW 18:34:19 55° ENE 18:35:39 43° ESE
Cosmos 2151 Rocket 3.9 18:33:35 42° SW 18:34:57 65° WNW 18:39:25 10° N
Cosmos 2237 Rocket 4.2 18:32:19 10° NNW 18:36:39 22° NNE 18:40:53 10° E
COSMOS 2455 3.6 18:32:34 10° NW 18:38:24 46° NE 18:41:12 28° E
SL-24 R/B 4.1 18:34:44 10° N 18:38:32 59° WNW 18:38:58 55° WSW
Cosmos 405 4.3 18:35:46 10° NNW 18:39:00 33° W 18:39:12 32° WSW
ARGOS Delta rocket 4.1 18:40:37 54° SE 18:41:51 76° ENE 18:47:22 10° N
Cosmos 2322 4.1 18:37:51 10° NNW 18:43:31 56° NE 18:45:12 41° ESE
USA 267 3.6 18:38:49 10° ENE 18:45:17 66° N 18:51:46 10° W
Cosmos 962 Rocket 4.4 18:39:14 10° N 18:45:25 89° W 18:47:20 48° S
CZ-4C R/B 2.1 18:44:28 51° S 18:45:45 67° SE 18:51:57 10° NE
Okean 1 Rocket 2.9 18:45:50 78° E 18:45:50 78° E 18:50:11 10° NNE
Landsat 4 4.0 18:42:29 10° NNE 18:45:43 60° NE 18:45:43 60° NE
Cosmos 1441 Rocket 4.1 18:48:03 40° NE 18:48:03 40° NE 18:50:56 10° NNE
Cosmos 1300 Rocket 4.3 18:46:26 35° SW 18:47:50 49° WNW 18:52:05 10° N
MOS 1 Rocket 3.8 18:44:02 10° N 18:49:27 71° WNW 18:51:39 37° SW
Nadezhda 1 Rocket 4.2 18:54:23 31° SSW 18:57:23 65° WNW 19:03:29 10° N
Cosmos 2322 Rocket 2.7 18:54:24 10° NW 18:59:47 47° WSW 19:00:52 42° SW
Cosmos 2218 Rocket 4.1 18:53:38 10° N 19:00:03 71° ENE 19:01:39 51° SE
SJ 16-02 4.4 19:01:45 10° WNW 19:04:14 15° NW 19:06:43 10° N
SPOT 5 4.5 19:05:07 19° WSW 19:06:15 21° W 19:09:39 10° NW
Spot 4 3.7 19:08:49 79° S 19:09:07 86° WSW 19:13:59 10° NNW
Cosmos 2333 Rocket 2.7 19:05:38 10° NNW 19:11:11 53° NE 19:12:38 42° E
Cosmos 389 Rocket 3.7 19:08:50 10° N 19:11:18 40° N 19:11:18 40° N
Meteor 1-4 Rocket 3.6 19:09:06 10° N 19:11:57 42° NNE 19:11:57 42° NNE
Lacrosse 4 Rocket 1.9 19:18:51 10° NW 19:22:14 56° NW 19:22:14 56° NW
Cosmos 1892 Rocket 3.7 19:18:39 10° NNW 19:22:55 71° WNW 19:22:55 71° WNW
Cosmos 2082 Rocket 4.1 19:20:46 10° W 19:25:37 28° NW 19:30:32 10° NNE
Helios 1B rocket 3.9 19:21:58 10° NNE 19:24:27 28° ENE 19:24:27 28° ENE
COSMOS 2487 4.1 19:28:43 33° N 19:28:43 33° N 19:30:48 10° NNE
Meteor 1-15 Rocket 4.0 19:28:18 72° S 19:28:53 83° ESE 19:34:37 10° NNE
ATLAS 2AS CENTAUR R/B 3.3 19:21:18 10° NW 19:29:12 62° NNE 19:33:27 27° ESE
Okean 1-7 Rocket 4.0 19:29:10 10° NNW 19:33:09 54° WNW 19:33:09 54° WNW
SL-16 R/B 3.6 19:29:24 10° NW 19:33:56 25° WSW 19:34:43 24° WSW
Cosmos 405 Rocket 4.1 19:39:47 33° NNE 19:39:47 33° NNE 19:42:02 10° NNE
Cosmos 2366 rocket 4.0 19:32:04 10° NNW 19:38:20 73° W 19:39:32 58° SSW
Cosmos 1437 Rocket 3.7 19:36:35 10° N 19:39:42 46° NNE 19:39:42 46° NNE
Cosmos 1626 4.1 19:40:28 10° N 19:42:48 23° NE 19:42:48 23° NE
Cosmos 2360 Rocket 2.8 19:41:02 10° NW 19:46:18 42° WSW 19:46:27 42° WSW
Cosmos 2227 Rocket 4.5 19:47:34 10° E 19:47:34 10° E 19:48:02 10° E
Aureole 1 Rocket 4.2 19:39:30 10° NNW 19:47:16 64° WSW 19:48:29 55° SSW
NOSS 2-2 (C) 4.4 19:44:13 10° NW 19:49:42 84° NE 19:51:24 53° SE
Cosmos 2219 Rocket 2.0 19:44:32 10° NNW 19:50:11 86° ENE 19:50:36 77° SE
Genesis I 4.3 19:47:09 10° NW 19:50:01 44° NNW 19:50:01 44° NNW
Meteor 1-24 Rocket 3.4 19:46:14 10° NNW 19:51:37 89° ENE 19:51:53 82° SSE
Meteor 1-22 Rocket 4.4 19:53:35 59° ESE 19:53:52 60° E 19:59:43 10° NNE
ALOS 2 3.0 19:56:10 59° NW 19:56:10 59° NW 19:59:56 10° NNW
Cosmos 1821 Rocket 4.0 19:49:10 10° N 19:55:32 69° ENE 19:56:35 59° SE
Cosmos 1934 Rocket 4.4 19:51:53 10° N 19:57:46 49° ENE 19:58:55 43° ESE
Helios 1A 4.4 19:59:35 30° WNW 19:59:35 30° WNW 20:02:42 10° NNW
Terra 4.2 19:57:55 12° W 19:59:00 12° W 20:00:58 10° WNW
Cosmos 1190 Rocket 4.2 19:55:58 10° NNW 20:01:16 62° ENE 20:01:45 59° E
Cosmos 2297 Rocket 4.2 20:02:24 15° E 20:02:24 15° E 20:04:57 10° ENE
COSMOS 2428 2.5 19:56:51 10° NNW 20:02:34 78° WSW 20:02:46 77° SW
Mayak -0.2 19:59:58 10° N 20:03:47 39° WNW 20:03:47 39° WNW
NOSS 2-1 (E) 4.3 20:06:18 46° NNW 20:06:18 46° NNW 20:10:07 10° NE
CZ-4 R/B 4.4 20:03:43 10° NNE 20:08:12 51° E 20:08:12 51° E
ERS-2 3.6 20:12:47 37° NNE 20:12:47 37° NNE 20:15:13 10° N
Meteor 2-5 Rocket 4.2 20:13:08 10° NNW 20:18:25 45° W 20:18:42 44° WSW
Cosmos 1674 4.4 20:17:23 10° NNW 20:19:40 29° NW 20:19:40 29° NW
Cosmos 2237 Rocket 2.3 20:16:06 10° NNW 20:21:48 69° NE 20:22:40 59° ESE
Cosmos 1544 Rocket 4.2 20:22:28 49° NW 20:22:28 49° NW 20:26:25 10° N
COSMOS 2455 3.1 20:18:38 10° NW 20:24:19 53° WSW 20:24:19 53° WSW
Cosmos 1980 3.7 20:19:09 10° NNW 20:24:51 75° ENE 20:25:30 67° ESE
SL-14 R/B 4.2 20:21:53 10° N 20:24:53 48° N 20:24:53 48° N
Cosmos 1455 Rocket 4.1 20:26:33 39° WNW 20:26:33 39° WNW 20:30:25 10° N
USA 267 3.5 20:21:33 10° E 20:28:02 69° NNE 20:34:33 10° WNW
BREEZE M DEB (TANK) 4.0 20:28:07 19° W 20:31:43 62° S 20:49:45 10° ESE
NOSS 0 Rocket 3.7 20:26:07 10° NW 20:32:19 78° WSW 20:32:52 72° S
SL-16 R/B 3.2 20:28:37 10° NNW 20:33:59 41° NE 20:36:46 25° E
CZ-4C R/B 3.4 20:29:34 11° W 20:34:39 44° NNW 20:41:02 10° NE
NOSS 3-4 (A) 3.7 20:28:32 10° NW 20:35:23 83° NE 20:38:32 38° SE
NOSS 3-4 (C) 3.8 20:28:38 10° NW 20:35:29 82° NE 20:38:40 38° SE
H-2A R/B 4.3 20:35:46 15° E 20:37:10 17° ENE 20:39:55 10° NNE
CZ-4C R/B 4.5 20:40:12 39° NNE 20:40:12 39° NNE 20:42:47 10° N
Cosmos 2228 4.2 20:40:13 34° ENE 20:40:13 34° ENE 20:43:28 10° NNE
Cosmos 1758 Rocket 4.0 20:40:58 10° NNW 20:44:31 57° NNW 20:44:31 57° NNW
Meteor 2-12 Rocket 4.4 20:39:58 10° NNW 20:45:58 64° W 20:46:29 61° WSW
NOSS 3-3 (A) 3.9 20:46:51 66° SSE 20:47:17 68° SE 20:54:03 10° NE
Cosmos 1140 Rocket 3.4 20:42:01 10° NNW 20:47:06 80° WNW 20:47:06 80° WNW
NOSS 3-3 (C) 3.9 20:46:58 65° SSE 20:47:23 67° SE 20:54:09 10° NE
Cosmos 1825 Rocket 4.0 20:43:25 10° NNW 20:47:05 60° NNW 20:47:05 60° NNW
Timation 2 Rocket 4.1 20:46:16 54° SW 20:47:55 77° NW 20:54:27 10° NNE
Cosmos 1371 Rocket 4.0 20:53:00 70° E 20:53:00 70° E 20:58:09 10° NNE
Cosmos 2333 Rocket 3.1 20:50:12 10° NW 20:54:37 34° W 20:54:37 34° W
Cosmos 1758 4.1 20:57:23 52° N 20:57:23 52° N 21:00:35 10° N
Cosmos 2219 3.5 20:56:36 54° ESE 20:56:42 54° ESE 21:02:19 10° NE
Cosmos 407 Rocket 4.0 20:52:10 10° NW 20:56:31 46° W 20:56:31 46° W
Resurs 1-4 Rocket 4.0 20:55:31 10° NE 20:59:07 18° E 21:00:23 17° ESE
Helios 1B rocket 3.9 20:57:22 10° N 21:00:46 30° WNW 21:00:46 30° WNW
Nadezhda 3 Rocket 4.2 21:02:28 50° WSW 21:03:32 56° WNW 21:09:36 10° N
Cosmos 1606 Rocket 3.9 21:04:41 64° NE 21:04:41 64° NE 21:08:35 10° NNE
CZ-4B R/B 4.2 21:00:42 10° NNE 21:05:08 40° E 21:05:08 40° E
Alouette 2 Rocket 4.2 21:06:16 53° E 21:06:16 53° E 21:11:48 10° NNE
Cosmos 1954 Rocket 3.9 21:01:22 10° NNW 21:06:32 75° W 21:06:32 75° W
SL-16 R/B 3.3 21:05:11 27° ESE 21:08:13 47° ENE 21:14:07 10° N
Cosmos 1452 Rocket 4.5 21:09:33 35° ESE 21:09:42 35° ESE 21:14:27 10° NE
Cosmos 1626 4.2 21:15:39 10° NNW 21:17:22 22° NW 21:17:22 22° NW
ATLAS 2AS CENTAUR R/B 3.0 21:12:43 10° NW 21:20:11 51° WSW 21:20:50 50° SW
Cosmos 676 Rocket 4.3 21:15:55 10° NNW 21:20:42 54° W 21:20:42 54° W
SL-19 R/B 4.1 21:16:43 10° NNE 21:21:57 71° WNW 21:22:27 66° WSW
Cosmos 2100 Rocket 4.3 21:22:25 10° N 21:28:47 65° ENE 21:31:08 39° SE
Cosmos 2227 Rocket 2.4 21:29:23 54° SE 21:29:55 56° ESE 21:35:28 10° NE
Cosmos 1459 Rocket 4.2 21:25:20 10° N 21:31:28 62° ENE 21:33:39 39° SE
Cosmos 2219 Rocket 3.9 21:29:32 10° NW 21:32:17 18° W 21:32:17 18° W
USA 215 3.8 21:27:55 10° ENE 21:34:00 39° SE 21:34:39 38° SSE
Cosmos 1953 3.1 21:34:48 45° NW 21:34:48 45° NW 21:37:57 10° N
Cosmos 1605 Rocket 4.1 21:28:58 10° NNW 21:35:12 58° W 21:36:12 52° SW
Cosmos 2058 Rocket 3.1 21:40:49 83° NNW 21:40:49 83° NNW 21:45:13 10° N
Cosmos 1802 Rocket 4.3 21:35:22 10° N 21:41:29 62° ENE 21:44:10 34° SE
Cosmos 2297 Rocket 2.1 21:44:12 62° S 21:45:02 73° ESE 21:50:43 10° NE
Cosmos 1271 Rocket 3.6 21:43:17 10° NNW 21:45:56 41° NNW 21:45:56 41° NNW
Cosmos 1850 Rocket 3.8 21:43:43 10° NNW 21:48:58 76° WSW 21:49:21 72° SSW
Cosmos 1470 4.4 21:49:40 25° NW 21:49:40 25° NW 21:52:27 10° N
RESURS DK-1 4.0 21:50:01 10° NNW 21:53:49 33° NE 21:57:36 10° ESE
Meteor 1-16 Rocket 4.2 21:53:06 58° SSW 21:54:20 81° WNW 22:00:19 10° NNE
Cosmos 2056 Rocket 4.0 21:53:44 45° W 21:54:49 53° WNW 22:00:10 10° NNE
CZ-2D R/B 2.8 21:50:39 10° NNE 21:55:55 47° E 21:57:29 37° SE
Cosmos 1943 4.4 21:54:04 10° NNW 21:59:32 43° NE 22:04:56 10° ESE
SL-08 R/B 4.3 21:56:50 23° SE 21:59:38 46° ENE 22:04:22 10° N
PSLV R/B 4.4 21:55:40 10° N 21:59:51 41° WNW 22:00:05 40° WNW
Cosmos 1725 Rocket 4.4 21:54:19 10° N 22:00:28 58° ENE 22:04:15 24° SE
Cosmos 1741 Rocket 4.0 21:57:43 10° NNW 22:02:59 63° WSW 22:03:23 61° SW
Cosmos 2237 Rocket 3.5 22:00:47 10° NW 22:04:28 25° W 22:04:28 25° W
Cosmos 1726 Rocket 4.5 22:07:05 36° WNW 22:07:06 36° WNW 22:11:14 10° N
SAR-Lupe-4 4.2 22:08:07 50° NNW 22:08:07 50° NNW 22:10:54 10° NNW
Cosmos 1726 2.6 22:08:15 56° NNW 22:08:15 56° NNW 22:11:28 10° N
Cosmos 1242 Rocket 3.3 22:04:47 10° NNW 22:07:21 47° NNW 22:07:21 47° NNW
SeaSat 1 3.8 22:04:15 10° NE 22:08:31 28° ESE 22:09:55 25° SE
Cosmos 1603 4.1 22:04:44 10° NNW 22:10:20 61° NE 22:15:55 10° SE
USA 267 3.1 22:04:36 10° SE 22:11:07 71° SSW 22:17:39 10° WNW
UNK 3.6 22:12:13 67° SW 22:12:36 72° WSW 22:17:19 10° NNW
H-2A R/B 1.9 22:12:52 72° W 22:12:52 72° W 22:16:53 10° NNW
Cosmos 2228 4.3 22:17:03 28° WNW 22:17:07 28° WNW 22:20:54 10° N
SL-16 R/B 2.4 22:12:48 10° NW 22:18:15 48° WSW 22:18:35 47° WSW
ARIANE 5 R/B 4.1 22:14:29 10° NNE 22:19:03 29° E 22:22:09 17° SE
MOZ.5/SAFIR/RUBIN 5/SL-8 3.8 22:21:09 58° SW 22:21:33 60° W 22:26:17 10° NNW
CZ-4C R/B 3.2 22:22:15 63° ENE 22:22:18 63° ENE 22:25:42 10° N
CZ-4C R/B 4.2 22:19:11 10° WNW 22:24:42 33° N 22:31:07 10° ENE
NOSS 3-4 (A) 4.5 22:19:49 10° WNW 22:25:53 33° WSW 22:25:53 33° WSW
NOSS 3-4 (C) 4.5 22:19:55 10° WNW 22:26:01 33° WSW 22:26:02 33° WSW
AQUA 4.0 22:21:40 10° NNE 22:26:27 66° ESE 22:27:48 44° SSE
Cosmos 1420 Rocket 4.3 22:26:01 45° WSW 22:27:22 59° WNW 22:32:38 10° NNE
Okean 3 Rocket 4.0 22:23:00 10° N 22:27:22 59° ENE 22:29:20 31° SE
Cosmos 1356 3.5 22:31:18 69° E 22:31:18 69° E 22:34:42 10° NNE
Cosmos 2173 Rocket 4.2 22:27:54 10° NNW 22:33:59 54° W 22:36:00 39° SW
SL-08 R/B 4.5 22:29:00 10° NNW 22:35:28 82° W 22:38:58 29° S
Cosmos 1461 2.8 22:36:23 59° W 22:36:53 66° NW 22:40:51 10° NE
In-Cosmos 22 Rocket 4.4 22:31:16 10° N 22:36:59 73° ENE 22:41:02 19° SSE
Cosmos 2151 3.6 22:33:14 10° N 22:37:23 52° ENE 22:39:47 23° SE
Cosmos 2082 3.7 22:35:42 43° SW 22:37:41 78° WNW 22:43:28 10° NNE
ERBS 3.6 22:36:54 28° NW 22:38:07 39° N 22:41:19 10° ENE
Cosmos 2263 Rocket 3.8 22:35:44 15° SSE 22:39:15 27° ESE 22:43:58 10° NE
CBERS-1 4.1 22:34:18 10° NNE 22:39:26 75° ESE 22:41:24 38° S
Cosmos 1812 Rocket 3.5 22:38:43 58° SW 22:39:27 73° WNW 22:43:49 10° N
GENESIS II 4.3 22:35:22 10° NW 22:39:31 82° NE 22:43:37 10° SE
NPP 3.6 22:34:11 10° NNE 22:39:37 86° WNW 22:41:37 41° SSW
Resurs 1-4 Rocket 2.0 22:34:21 10° NNE 22:39:38 83° WNW 22:41:27 42° SSW
Cosmos-2242 3.8 22:38:25 29° SSE 22:40:10 45° E 22:44:18 10° NNE
IRS-1D 3.8 22:35:00 10° NNE 22:40:12 67° ESE 22:42:34 33° S
Cosmos 1076 Rocket 3.5 22:36:20 10° NNW 22:40:31 57° W 22:40:49 55° WSW
Cosmos 1110 Rocket 4.2 22:39:07 38° S 22:41:04 65° ESE 22:46:20 10° NNE
Cosmos 2219 4.2 22:38:31 26° W 22:41:07 38° NW 22:46:30 10° NNE
CZ-4B R/B 2.6 22:41:20 24° SE 22:42:54 42° ENE 22:46:09 10° N
CZ-4B R/B 4.3 22:39:34 10° N 22:43:52 34° WNW 22:45:04 30° W
Cosmos 2058 2.8 22:47:00 10° NNW 22:51:05 64° W 22:51:44 54° SW
Cosmos 1452 Rocket 4.1 22:49:53 33° WSW 22:51:44 46° NW 22:56:49 10° NNE
SL-16 R/B 3.0 22:50:17 34° SW 22:51:57 41° W 22:57:46 10° NNW
Cosmos 2061 Rocket 4.3 22:47:18 10° NNW 22:53:31 53° W 22:56:17 32° SSW
IRS-P3 4.1 22:49:20 10° NNE 22:54:44 81° ESE 22:57:23 31° S
Cosmos 1908 4.3 22:54:47 30° WNW 22:54:57 30° WNW 22:58:23 10° N
Landsat 5 3.1 22:55:00 53° SSW 22:55:46 71° WSW 22:59:37 10° NNW
Meteor 2-1 Rocket 4.3 22:56:33 27° S 22:59:56 79° E 23:05:43 10° NNE
Cosmos 1455 3.9 22:58:19 13° SE 23:00:57 28° E 23:04:13 10° NNE
Cosmos 1825 3.9 23:00:00 10° N 23:03:28 32° ENE 23:06:54 10° SE
Cosmos 2016 Rocket 4.3 22:58:26 10° NNW 23:04:16 46° W 23:06:50 30° SW
BREEZE-M DEB (TANK) 3.5 23:03:30 39° SSW 23:04:39 53° SSE 23:13:44 10° E
Cosmos 1300 2.7 23:04:05 50° SW 23:04:49 62° WNW 23:08:39 10° N
Cosmos 968 Rocket 4.1 23:00:51 10° NNW 23:05:57 56° ENE 23:11:04 10° SE
CZ-2C R/B 4.3 23:04:09 10° NNE 23:07:52 33° E 23:11:03 13° SSE
Cosmos 2233 Rocket 3.9 23:05:32 10° NNW 23:11:41 74° W 23:16:41 16° S
ADEOS II 2.3 23:06:37 10° NNE 23:11:54 69° ESE 23:15:32 20° S
Cosmos 2227 Rocket 3.2 23:11:12 21° W 23:14:16 36° NW 23:19:31 10° NNE
Cosmos 1408 Rocket 3.5 23:12:21 10° N 23:16:52 89° E 23:20:34 15° S
USA 215 3.2 23:10:56 10° ENE 23:17:31 88° SSE 23:21:59 22° WSW
CZ-2D R/B 4.1 23:14:31 10° NNE 23:18:49 55° E 23:21:50 18° S
Meteor 1-28 Rocket 4.1 23:15:26 10° SE 23:19:00 49° ENE 23:22:38 10° N
Cosmos 1354 Rocket 4.2 23:20:34 10° NNW 23:25:55 75° ENE 23:31:13 10° SSE
Cosmos 371 Rocket 3.3 23:23:50 25° SSW 23:26:40 82° ESE 23:31:34 10° NNE
Cosmos 2227 4.2 23:24:39 23° SSW 23:28:15 77° ESE 23:33:55 10° NNE
deb Chang Zheng 4 3.7 23:24:04 10° N 23:28:19 57° WNW 23:30:24 28° SW
Cosmos 2297 Rocket 3.5 23:26:01 16° W 23:29:38 30° NW 23:34:38 10° NNE
Cosmos 1743 Rocket 3.9 23:25:22 10° N 23:29:50 67° ENE 23:34:17 10° SSE
RESURS DK-1 2.8 23:28:02 10° NW 23:31:56 40° WSW 23:34:24 20° S
Cosmos 2123 Rocket 4.3 23:28:23 24° SW 23:32:04 51° WNW 23:38:13 10° N
Meteor 2-3 Rocket 4.2 23:28:24 10° N 23:33:58 61° ENE 23:39:29 10° SSE
CZ-2D R/B 3.0 23:30:58 10° N 23:35:52 35° WNW 23:38:47 21° WSW
Cosmos 1238 Rocket 2.1 23:33:27 10° NNW 23:36:30 78° W 23:39:01 16° S
SL-08 R/B 4.3 23:35:49 24° SW 23:37:37 31° W 23:42:01 10° NNW
IDEFIX/ARIANE 42P 4.2 23:37:04 10° NNE 23:41:47 33° E 23:46:29 10° SSE
Cosmos 1943 3.4 23:38:14 10° NW 23:43:40 46° WSW 23:49:05 10° S
Intercosmos 25 Rocket 3.8 23:43:19 27° WSW 23:44:25 35° WNW 23:47:51 10° N
Cosmos 1892 3.3 23:42:33 10° NNW 23:46:07 36° W 23:47:54 23° SW
SeaSat 1 2.7 23:41:28 10° NNE 23:46:21 61° NW 23:49:42 20° SW
Cosmos 1766 Rocket 4.3 23:44:05 10° NNW 23:48:08 34° W 23:50:30 20° SW
Cosmos 2285 Rocket 4.3 23:45:27 10° NW 23:51:28 45° WSW 23:57:30 10° S
Cosmos 304 Rocket 4.1 23:49:14 13° SSW 23:53:31 67° ESE 23:58:20 10° NNE
Cosmos 1302 Rocket 4.0 23:49:57 19° SW 23:53:45 71° WNW 23:58:58 10° NNE
Cosmos 1603 4.5 23:49:19 10° NW 23:54:08 30° WSW 23:58:57 10° SSW
